Airfield :
LOGIN :

Register | Disclaimer

   EN    FR    IT 

 










Legend :    VFR   Marginal VFR   IFR   Intensive IFR   Very Intensive IFR
Visi :
Ceiling :
>= 8 km
>= 3000ft
5 to 8 km
1000 to 3000 ft
1500m to 5 km
500 to 1000 ft
800 to 1500m
200 to 500 ft
< 800m
< 200 ft
Symbols :   Thunderstorms  Fog  Heavy snow  Heavy precipitations  Wind > 20 kt
SIGMETs :     Misc.  Thunderstorms  Icing  Turbulence  Mountain Waves  Volcanic Ashes







- Airport Elevation : 915 ft
- IATA code : LUG


LSZA - Lugano

CURRENT METAR :
  • 191150Z 20005KT 9999 FEW060 29/15 Q1020 NOSIG

EXPIRED METARs :
  • 191120Z 20006KT 9999 FEW060 28/16 Q1020 NOSIG
  • 191050Z 20005KT 170V230 CAVOK 28/16 Q1021 NOSIG
  • 191020Z 21006KT 180V240 CAVOK 27/16 Q1021 NOSIG
  • 190950Z 20004KT CAVOK 26/12 Q1021 NOSIG
  • 190920Z 20005KT CAVOK 25/14 Q1021 NOSIG

TAF TAF LSZA
Valid from the 19 at 12:00 until the 19 at 21:00 UTC


191125Z 1912/1921 19008KT CAVOK
TEMPO 1912/1921 9999 FEW060
BECMG 1917/1919 VRB03KT
ATIS : +41 22 417 40 88
No reported NOTAMs for that airfield.



MET'MAP, your aeronautical weather chart ! - Copyright ORBIFLY December 2007 - Disclaimer

ORBIFLY MET'MAP TEAM :

Programming & Development : Alexandra Zaïnal
Concept & Development : Baudouin d'Aumeries
Co-Development & Prog : Marc-Olivier Méhu
Technical & hardware support : Manuel Goepfert

Contact : metmap@orbifly.com




SOURCES & CREDITS :

   NOAA